| time (UTC) | temp C | wind direction | speed KPH | gust KPH | rain 1hr cm | rain 24hr cm | rain mn cm | humidity % | barometer mb |
| 20260508030048 | 10 | 0 | 0.0 | 0.0 | 0.00 | 0.00 | 0.00 | 94 | 1012.7 |
| 20260508024536 | 10 | 0 | 0.0 | 0.0 | 0.00 | 0.00 | 0.00 | 93 | 1012.5 |
| 20260508023032 | 10 | 0 | 0.0 | 0.0 | 0.00 | 0.00 | 0.00 | 93 | 1012.4 |
| 20260508021538 | 10 | 0 | 0.0 | 0.0 | 0.00 | 0.00 | 0.00 | 93 | 1012.1 |
| 20260508020037 | 10 | 0 | 0.0 | 0.0 | 0.00 | 0.00 | 0.00 | 92 | 1011.9 |
| 20260508014538 | 11 | 0 | 0.0 | 0.0 | 0.00 | 0.00 | 0.00 | 92 | 1011.5 |
| 20260508013037 | 11 | 0 | 0.0 | 0.0 | 0.00 | 0.00 | 0.00 | 92 | 1011.4 |
| 20260508011535 | 11 | 0 | 0.0 | 0.0 | 0.00 | 0.00 | 0.00 | 90 | 1011.4 |
| 20260508010035 | 12 | 0 | 0.0 | 0.0 | 0.00 | 0.00 | 0.00 | 90 | 1011.3 |
| 20260508004538 | 12 | 0 | 0.0 | 0.0 | 0.00 | 0.00 | 0.00 | 89 | 1011.6 |
| 20260508003037 | 12 | 0 | 0.0 | 0.0 | 0.00 | 0.00 | 0.00 | 88 | 1011.3 |
| 20260508001534 | 13 | 0 | 0.0 | 0.0 | 0.00 | 0.00 | 0.00 | 86 | 1011.2 |
| 20260508000037 | 13 | 0 | 0.0 | 0.0 | 0.00 | 0.00 | 0.00 | 86 | 1010.7 |
| 20260507234542 | 13 | 0 | 0.0 | 0.0 | 0.00 | 0.00 | 0.00 | 84 | 1010.4 |
| 20260507233038 | 13 | 0 | 0.0 | 3.2 | 0.00 | 0.00 | 0.00 | 85 | 1010.4 |
| 20260507231537 | 13 | 0 | 0.0 | 4.8 | 0.00 | 0.00 | 0.00 | 87 | 1010.2 |
| 20260507230037 | 13 | 0 | 1.6 | 6.4 | 0.00 | 0.00 | 0.00 | 87 | 1009.9 |
| 20260507224535 | 13 | 0 | 0.0 | 4.8 | 0.00 | 0.00 | 0.00 | 87 | 1009.8 |
| 20260507223039 | 13 | 350 | 1.6 | 6.4 | 0.00 | 0.00 | 0.00 | 86 | 1010.2 |
| 20260507221538 | 13 | 326 | 1.6 | 6.4 | 0.00 | 0.00 | 0.00 | 86 | 1010.1 |
| 20260507220040 | 13 | 333 | 3.2 | 6.4 | 0.00 | 0.00 | 0.00 | 86 | 1010.1 |
| 20260507214537 | 13 | 0 | 0.0 | 3.2 | 0.00 | 0.00 | 0.00 | 87 | 1010.0 |
| 20260507213040 | 13 | 0 | 0.0 | 4.8 | 0.00 | 0.00 | 0.00 | 87 | 1010.0 |
| 20260507211532 | 12 | 350 | 1.6 | 8.0 | 0.00 | 0.00 | 0.00 | 89 | 1010.1 |
| 20260507210035 | 12 | 0 | 0.0 | 4.8 | 0.00 | 0.00 | 0.00 | 91 | 1009.8 |
| 20260507204539 | 12 | 58 | 1.6 | 6.4 | 0.00 | 0.00 | 0.00 | 91 | 1009.8 |
| 20260507203037 | 12 | 36 | 3.2 | 8.0 | 0.00 | 0.00 | 0.00 | 91 | 1010.1 |
| 20260507201538 | 12 | 355 | 3.2 | 8.0 | 0.00 | 0.00 | 0.00 | 92 | 1010.1 |
| 20260507200043 | 12 | 360 | 1.6 | 8.0 | 0.00 | 0.00 | 0.00 | 93 | 1010.3 |
| 20260507194542 | 12 | 355 | 3.2 | 8.0 | 0.00 | 0.00 | 0.00 | 92 | 1010.6 |
| 20260507193033 | 12 | 0 | 3.2 | 12.9 | 0.00 | 0.00 | 0.00 | 92 | 1010.3 |
| 20260507191535 | 12 | 22 | 3.2 | 8.0 | 0.00 | 0.00 | 0.00 | 92 | 1010.4 |
| 20260507190038 | 12 | 22 | 4.8 | 9.7 | 0.00 | 0.00 | 0.00 | 91 | 1010.5 |
| 20260507184537 | 12 | 19 | 1.6 | 8.0 | 0.00 | 0.00 | 0.00 | 90 | 1010.6 |
| 20260507183043 | 12 | 0 | 3.2 | 9.7 | 0.00 | 0.00 | 0.00 | 90 | 1010.5 |
| 20260507181538 | 12 | 24 | 1.6 | 6.4 | 0.00 | 0.00 | 0.00 | 89 | 1010.6 |
| 20260507180033 | 12 | 355 | 1.6 | 9.7 | 0.00 | 0.00 | 0.00 | 89 | 1010.6 |
| 20260507174535 | 12 | 329 | 1.6 | 14.5 | 0.00 | 0.00 | 0.00 | 89 | 1010.4 |
| 20260507173034 | 12 | 319 | 4.8 | 9.7 | 0.00 | 0.00 | 0.00 | 90 | 1010.4 |
| 20260507171537 | 12 | 16 | 4.8 | 11.3 | 0.00 | 0.00 | 0.00 | 90 | 1010.2 |
| 20260507170037 | 12 | 352 | 3.2 | 14.5 | 0.00 | 0.00 | 0.00 | 90 | 1010.2 |
| 20260507164534 | 12 | 22 | 4.8 | 11.3 | 0.00 | 0.00 | 0.00 | 89 | 1010.6 |
| 20260507163039 | 12 | 57 | 3.2 | 17.7 | 0.00 | 0.00 | 0.00 | 89 | 1010.9 |
| 20260507161540 | 12 | 66 | 4.8 | 12.9 | 0.00 | 0.00 | 0.00 | 90 | 1010.6 |
| 20260507160038 | 12 | 24 | 1.6 | 12.9 | 0.00 | 0.00 | 0.00 | 92 | 1010.8 |
| 20260507154536 | 12 | 5 | 3.2 | 12.9 | 0.00 | 0.00 | 0.00 | 91 | 1010.8 |
| 20260507153038 | 13 | 55 | 4.8 | 17.7 | 0.00 | 0.00 | 0.00 | 89 | 1010.8 |
| 20260507151535 | 14 | 67 | 4.8 | 16.1 | 0.00 | 0.00 | 0.00 | 88 | 1010.9 |
| 20260507150037 | 15 | 344 | 3.2 | 17.7 | 0.00 | 0.00 | 0.00 | 90 | 1010.6 |
| 20260507144538 | 16 | 333 | 6.4 | 16.1 | 0.00 | 0.00 | 0.00 | 90 | 1009.9 |
| 20260507143056 | 16 | 340 | 4.8 | 14.5 | 0.00 | 0.00 | 0.00 | 90 | 1009.4 |
| 20260507141554 | 16 | 317 | 3.2 | 17.7 | 0.00 | 0.00 | 0.00 | 91 | 1009.6 |
| 20260507140036 | 17 | 325 | 11.3 | 17.7 | 0.00 | 0.00 | 0.00 | 92 | 1009.8 |
| 20260507134535 | 17 | 321 | 6.4 | 12.9 | 0.00 | 0.00 | 0.00 | 94 | 1009.5 |
| 20260507133041 | 17 | 17 | 1.6 | 4.8 | 0.00 | 0.00 | 0.00 | 95 | 1009.6 |
| 20260507131541 | 16 | 0 | 0.0 | 3.2 | 0.00 | 0.00 | 0.00 | 95 | 1010.2 |
| 20260507130042 | 17 | 360 | 1.6 | 6.4 | 0.00 | 0.00 | 0.00 | 96 | 1010.5 |
| 20260507124538 | 17 | 316 | 3.2 | 6.4 | 0.00 | 0.00 | 0.00 | 96 | 1010.3 |
| 20260507123039 | 17 | 333 | 0.0 | 6.4 | 0.00 | 0.00 | 0.00 | 96 | 1010.0 |
| 20260507121539 | 17 | 324 | 6.4 | 11.3 | 0.00 | 0.00 | 0.00 | 96 | 1010.1 |
| 20260507120033 | 17 | 355 | 1.6 | 3.2 | 0.00 | 0.00 | 0.00 | 96 | 1009.9 |
| 20260507114537 | 17 | 0 | 0.0 | 0.0 | 0.00 | 0.00 | 0.00 | 96 | 1009.9 |
| 20260507113036 | 17 | 0 | 0.0 | 1.6 | 0.00 | 0.00 | 0.00 | 96 | 1009.7 |
| 20260507111538 | 16 | 0 | 0.0 | 0.0 | 0.00 | 0.00 | 0.00 | 96 | 1009.7 |
| 20260507110037 | 16 | 0 | 0.0 | 0.0 | 0.00 | 0.00 | 0.00 | 96 | 1010.0 |
| 20260507104536 | 16 | 0 | 0.0 | 0.0 | 0.00 | 0.00 | 0.00 | 96 | 1009.6 |
| 20260507103036 | 16 | 0 | 0.0 | 3.2 | 0.00 | 0.00 | 0.00 | 96 | 1009.5 |
| 20260507101534 | 16 | 0 | 0.0 | 4.8 | 0.00 | 0.00 | 0.00 | 96 | 1009.4 |
| 20260507100051 | 16 | 100 | 1.6 | 6.4 | 0.00 | 0.00 | 0.00 | 95 | 1008.6 |
| 20260507094537 | 17 | 129 | 0.0 | 4.8 | 0.00 | 0.00 | 0.00 | 95 | 1009.4 |
| 20260507093036 | 17 | 0 | 0.0 | 0.0 | 0.00 | 0.00 | 0.00 | 95 | 1009.6 |
| 20260507091538 | 17 | 0 | 0.0 | 0.0 | 0.00 | 0.00 | 0.00 | 95 | 1009.9 |
| 20260507090040 | 17 | 0 | 0.0 | 3.2 | 0.00 | 0.00 | 0.00 | 95 | 1009.4 |
| 20260507084547 | 17 | 152 | 0.0 | 3.2 | 0.00 | 0.00 | 0.00 | 95 | 1009.6 |
| 20260507083039 | 17 | 150 | 1.6 | 4.8 | 0.00 | 0.00 | 0.00 | 95 | 1009.6 |
| 20260507081541 | 17 | 0 | 0.0 | 4.8 | 0.00 | 0.00 | 0.00 | 94 | 1009.4 |
| 20260507080036 | 17 | 255 | 3.2 | 8.0 | 0.00 | 0.00 | 0.00 | 94 | 1009.2 |
| 20260507074540 | 17 | 227 | 3.2 | 6.4 | 0.00 | 0.00 | 0.00 | 94 | 1009.5 |
| 20260507073039 | 17 | 237 | 3.2 | 6.4 | 0.00 | 0.00 | 0.00 | 94 | 1009.4 |
| 20260507071538 | 17 | 213 | 4.8 | 11.3 | 0.00 | 0.00 | 0.00 | 94 | 1009.2 |
| 20260507070043 | 17 | 153 | 8.0 | 19.3 | 0.00 | 0.00 | 0.00 | 94 | 1009.1 |
| 20260507064600 | 17 | 170 | 6.4 | 11.3 | 0.00 | 0.00 | 0.00 | 93 | 1009.1 |
| 20260507063037 | 17 | 192 | 4.8 | 8.0 | 0.00 | 0.00 | 0.00 | 94 | 1009.8 |
| 20260507061532 | 18 | 184 | 4.8 | 11.3 | 0.00 | 0.00 | 0.00 | 94 | 1010.4 |
| 20260507060054 | 18 | 202 | 3.2 | 9.7 | 0.00 | 0.00 | 0.00 | 93 | 1010.5 |
| 20260507054545 | 18 | 186 | 4.8 | 12.9 | 0.00 | 0.00 | 0.00 | 94 | 1010.7 |
| 20260507053039 | 18 | 202 | 8.0 | 16.1 | 0.00 | 0.00 | 0.00 | 94 | 1011.1 |
| 20260507051547 | 18 | 173 | 6.4 | 14.5 | 0.00 | 0.00 | 0.00 | 95 | 1011.4 |
| 20260507050044 | 18 | 173 | 3.2 | 9.7 | 0.00 | 0.00 | 0.00 | 94 | 1011.3 |
| 20260507044532 | 18 | 209 | 1.6 | 6.4 | 0.00 | 0.00 | 0.00 | 94 | 1011.4 |
| 20260507043034 | 18 | 0 | 0.0 | 6.4 | 0.00 | 0.00 | 0.00 | 93 | 1011.4 |
| 20260507041539 | 18 | 111 | 0.0 | 8.0 | 0.00 | 0.00 | 0.00 | 93 | 1010.9 |
| 20260507040037 | 18 | 142 | 1.6 | 6.4 | 0.00 | 0.00 | 0.00 | 92 | 1011.1 |
| 20260507034538 | 18 | 175 | 1.6 | 8.0 | 0.00 | 0.00 | 0.00 | 91 | 1012.2 |
| 20260507033035 | 18 | 164 | 1.6 | 8.0 | 0.00 | 0.00 | 0.00 | 89 | 1012.1 |
| 20260507031535 | 19 | 189 | 3.2 | 8.0 | 0.00 | 0.00 | 0.00 | 88 | 1012.0 |